Home > Weather > Suzuka > Past weeks

Flag for Japan Past Weather in Suzuka, Japan — Yesterday and Last 2 Weeks

Now
80 °F

Warm.


Feels Like: 84 °F
Forecast: 74 / 86 °F
Wind: 7 mph from Southeast

Location: Tsu

Current Time: Jul 28, 2016 at 9:24:14 PM

Latest Report: Jul 28, 2016 at 8:00 PM


Visibility: N/A

Pressure: 29.90 "Hg

Humidity: 74%

Dew Point: 71 °F

Location of SuzukaLocation

Past Weather in Suzuka — Graph

°F

Suzuka Temperature Yesterday

Maximum temperature yesterday: 82 °F (at 2:00 PM)
Minimum temperature yesterday: 72 °F (at 12:00 AM)
Average temperature yesterday: 77 °F

High & Low Weather Summary for the Past Weeks

 TemperatureHumidityPressure
High92 °F (Jul 14, 3:00 PM)90% (Jul 14, 4:00 AM)29.99 "Hg (Jul 14, 4:00 AM)
Low72 °F (Jul 26, 7:00 PM)39% (Jul 19, 2:00 PM)29.38 "Hg (Jul 14, 3:00 PM)
Average79 °F70%29.80 "Hg
* Reported Jul 13 8:00 PM — Jul 28 8:00 PM, Suzuka, Weather by CustomWeather, © 2016

Note: Actual official high and low records may vary slightly from our data, if they occured in-between our weather recording intervals... More about our weather records

Advertising

Suzuka Weather History for the Previous 24 Hours

Scroll right to see more
 ConditionsComfort  
Time TempWeatherWind HumidityBarometerVisibility
8:00 PM
Thu, Jul 28
80 °FWarm.7 mph74%29.90 "HgN/A
7:00 PM80 °FWarm.9 mph80%29.89 "HgN/A
6:00 PM80 °FWarm.10 mph78%29.88 "HgN/A
5:00 PM83 °FWarm.13 mph71%29.87 "HgN/A
4:00 PM83 °FWarm.13 mph70%29.87 "HgN/A
3:00 PM82 °FPartly sunny.13 mph71%29.88 "Hg16 mi
2:00 PM84 °FWarm.13 mph68%29.88 "HgN/A
1:00 PM84 °FWarm.13 mph69%29.89 "HgN/A
12:00 PM83 °FWarm.13 mph72%29.90 "HgN/A
11:00 AM81 °FWarm.14 mph75%29.91 "HgN/A
10:00 AM80 °FWarm.15 mph78%29.91 "HgN/A
9:00 AM78 °FOvercast.12 mph81%29.90 "Hg9 mi
8:00 AM78 °FWarm.9 mph80%29.90 "HgN/A
7:00 AM78 °FWarm.12 mph82%29.89 "HgN/A
6:00 AM78 °FWarm.9 mph85%29.88 "HgN/A
5:00 AM78 °FWarm.9 mph86%29.88 "HgN/A
4:00 AM78 °FWarm.7 mph83%29.86 "HgN/A
3:00 AM78 °FWarm.8 mph84%29.86 "HgN/A
2:00 AM78 °FWarm.15 mph87%29.86 "HgN/A
1:00 AM78 °FWarm.14 mph86%29.86 "HgN/A
12:00 AM78 °FWarm.8 mph84%29.87 "HgN/A
11:00 PM
Wed, Jul 27
78 °FWarm.9 mph84%29.86 "HgN/A
10:00 PM78 °FWarm.10 mph84%29.86 "HgN/A
9:00 PM78 °FOvercast.9 mph83%29.85 "Hg16 mi
Weather by CustomWeather, © 2016

See weather overviewHow to use our weather pages